Regional Weather Roundup
Issued by NWS

Home | Current Version | Previous Version | Graphics & Text | Print | Product List | Glossary On
Versions: 1 2 3 4 5 6 7 8 9 10 11 12 13 14 15 16 17 18 19 20 21 22 23 24 25 26 27 28 29 30 31 32 33 34 35 36 37 38 39 40 41 42 43 44 45 46 47 48 49 50
000
ASUS43 KDTX 241501
RWRMI
MICHIGAN HOURLY REGIONAL WEATHER ROUNDUP
NATIONAL WEATHER SERVICE DETROIT/PONTIAC MI
1100 AM EDT FRI MAR 24 2017

NOTE: "FAIR" INDICATES FEW OR NO CLOUDS BELOW 12,000 FEET WITH NO
SIGNIFICANT WEATHER AND/OR OBSTRUCTION TO VISIBILITY.

MIZ047>049-052>055-059>063-066>070-074>076-081>083-241600-
SOUTHEAST LOWER MICHIGAN

CITY           SKY/WX    TMP DP  RH WIND       PRES   REMARKS
ADRIAN         CLOUDY    56  47  71 W21G30    30.02S
ALMA           PTSUNNY   48  42  78 SW5       29.95R
ANN ARBOR      PTSUNNY   56  47  71 S17G25    29.99F
BAD AXE        MOSUNNY   50  40  69 SW9       29.93F
CARO           MOSUNNY   54  41  61 SW12      29.94F
DETROIT CITY   MOSUNNY   57  46  66 W15G26    30.00R
DETROIT        CLOUDY    57  46  66 SW21G28   30.01S
FLINT          CLOUDY    55  44  66 SW10      29.97S
GROSSE ILE     CLOUDY    57  46  68 SW10      30.00R
HILLSDALE      SUNNY     57  46  67 SW14G24   30.00F
HOWELL         CLOUDY    55  44  65 SW9       29.97S

CITY           SKY/WX    TMP DP  RH WIND       PRES   REMARKS
JACKSON        PTSUNNY   61  47  59 SW17G28   29.97F
LAMBERTVILLE   CLOUDY    62  47  60 SW16G25   30.01F
LANSING        PTSUNNY   57  44  62 SW18G24   29.96S
LAPEER         FAIR      57  44  61 W14G20    29.97F
MASON          PTSUNNY   58  48  69 SW8       29.96S
MONROE         MOSUNNY   60  50  68 MISG      30.00S
MT. CLEMENS    PTSUNNY   57  46  66 SW14G25   29.98R
PONTIAC        CLOUDY    55  44  66 SW17      29.98R
PORT HOPE        N/A     36  34  92 E8        29.93S WCI  30
PORT HURON     CLOUDY    54  41  62 SW6       29.99S
TRI CITIES     MOSUNNY   50  42  74 SW12      29.94F
MIDLAND        FAIR      53  39  58 SW10      29.92F
TROY           PTSUNNY   55  43  62 SW13G21   30.01R
SAGINAW HB     MOSUNNY   50  39  66 SW9       29.94F
$$
MIZ043>046-050>051-056>058-064>065-071>073-077>080-241600-
SOUTHWEST LOWER MICHIGAN

CITY           SKY/WX    TMP DP  RH WIND       PRES   REMARKS
BATTLE CREEK   MOSUNNY   61  48  62 SW22G28   29.96S
BENTON HARBOR  MOSUNNY   64  48  56 S13G21    29.93F
BIG RAPIDS     MOSUNNY   52  41  67 SW12G20   29.91S
COLDWATER      CLOUDY    61  47  62 SW18G28   29.99S
FREMONT        PTSUNNY   51  41  68 SW8       29.93S
HOLLAND        CLOUDY    56  46  69 SW18G26   29.94S
GRAND RAPIDS   PTSUNNY   56  45  66 SW5       29.94S
IONIA          CLOUDY    54  44  69 CALM      29.94R
KALAMAZOO      CLOUDY    60  46  59 SW16G25   29.96F
LUDINGTON      PTSUNNY   50  41  70 S9        29.90F
MARSHALL       CLOUDY    60  48  64 SW15G26   29.96S
MOUNT PLEASANT SUNNY     51  41  68 SW10      29.92S
MUSKEGON       CLOUDY    51  42  71 S12       29.94R
SOUTH HAVEN    CLOUDY    65  49  55 SW17G28   29.92S
$$
MIZ016>042-241600-
NORTHERN LOWER MICHIGAN

CITY           SKY/WX    TMP DP  RH WIND       PRES   REMARKS
ALPENA         CLOUDY    34  34 100 SW3       29.96R FOG
BEAVER ISLAND  LGT RAIN  35  35 100 CALM      29.93R
BELLAIRE       CLOUDY    38  37  94 CALM      29.92F FOG
CADILLAC       PTSUNNY   49  39  66 SW9       29.88F
CHARLEVOIX     CLOUDY    37  37 100 W3        29.97R FOG
FRANKFORT      CLOUDY    42  36  79 W5        29.93R
GAYLORD        CLOUDY    36  32  85 CALM      29.90R FOG
GRAYLING       CLOUDY    41  37  87 CALM      29.93R
HARBOR SPRINGS LGT RAIN  33  33 100 CALM      29.92S
HOUGHTON LAKE  PTSUNNY   47  37  68 CALM      29.91S
MANISTEE       PTSUNNY   50  39  66 W5        29.91S
OSCODA         CLOUDY    41  38  87 SW7       29.93F
PELLSTON       LGT RAIN  33  31  92 CALM      29.92S FOG
ROGERS CITY    CLOUDY    34  32  93 SW5       29.95  FOG     WCI  30
TRAVERSE CITY  CLOUDY    42  39  89 CALM      29.90R FOG
$$
MIZ007>008-015-241600-
EASTERN UPPER MICHIGAN

CITY           SKY/WX    TMP DP  RH WIND       PRES   REMARKS
KINROSS        LGT SNOW  32  31  96 CALM      29.94R FOG
MACKINAC ISLAN MIX PCPN  32  32 100 CALM      29.93R
NEWBERRY       MIX PCPN  32  31  97 CALM      29.93R
S. S. MARIE    RAIN      33  32  96 NE3       29.92R FOG
MUNISING         N/A     34  32  92 NE6       29.92R WCI  29
$$
MIZ004>006-011>014-085-241600-
CENTRAL UPPER MICHIGAN

CITY           SKY/WX    TMP DP  RH WIND       PRES   REMARKS
MANISTIQUE     LGT SNOW  32  32 100 CALM      29.92F
ESCANABA       LGT SNOW  34  34 100 NW5       29.95R FOG     WCI  30
MENOMINEE        N/A    N/A N/A N/A MISG        N/A
SAWYER-GWINN   CLOUDY    32  32 100 N3        29.93R FOG
$$
MIZ001>003-009>011-084-241600-
WESTERN UPPER MICHIGAN

CITY           SKY/WX    TMP DP  RH WIND       PRES   REMARKS
IRON MOUNTAIN  LGT RAIN  34  31  88 CALM      29.92R FOG
HOUGHTON       CLOUDY    34  31  88 NW10      29.94R FOG     WCI  26
COPPER HARBOR    N/A     35  33  92 N10       29.96R WCI  27
IRONWOOD       CLOUDY    33  32  96 N7        29.97R FOG     WCI  27
$$

ABBREVIATIONS USED IN REMARKS
   TC - TEMPERATURE IN CELSIUS
  WCI - WIND CHILL INDEX
   HX - HEAT INDEX
  VSB - VISIBILITY





USA.gov is the U.S. government's official web portal to all federal, state and local government web resources and services.